loading
DOY 203 | 2024-07-21T10:03:09Z

IUS R/B(2), 22316

Orbit data source: Space-Track

IUS R/B(2), 22316 is space debris in GEO originally from a launch on Wed, 13 Jan 1993 UTC launched from the Air Force Eastern Test Range (AFETR). Debris objects in space refer to the collection of defunct objects orbiting the Earth. Examples of debris include non-operational satellites, rocket bodies, and fragments generated from explosions, collisions, or faulty payload assembly.

Next visibility unknown
Loading greatness...
IUS R/B(2) details
NORAD ID22316
COSPAR ID
1993-003D
Orbit
GEO
Last TLE update17 hours ago
Origin
Flag of USNASA MSFC (US)
ManufacturerUTC CSD
BusOrbus 6
MotorUnknown
Mass~1,100 kg wet, ~1,100 kg dry
Launch date (UTC)
1993-01-13 (32 years ago)
Launch vehicleUnknown
Launch site
Air Force Eastern Test Range (AFETR)
Object type
Payload
Rocket body
Debris
Radar Cross Section3 m², Large (>1 m²)
Predictive object data (real-time)
Latitude12.23894°
Longitude-122.85194°
Altitude35,553.227 km
Speed3.093 km/s
Apparent Right ascension05h 18m 15s
Apparent Declination6° 40' 57"
Sunlit
Object is in daylight
Predictive observer data (real-time)
Local Sidereal Time23:01:21
Azimuth82.171° E
Elevation1.063°
Doppler factor1
Orbital elements
Apogee36,123.912 km
Perigee35,525.97 km
Semi-major axis42,203.078 km
Eccentricity0.0070841
Inclination12.2807°
RAAN348.5126°
Arg. of periapsis110.46°
True anomaly80.49583°
Mean anomaly79.6959°
Mean motion0.25034 °/min
BSTARUnknown
Period1438.06 mins
Definitive object data (Epoch: 2024-07-20T17:06:23.385Z)
Latitude-2.31019°
Longitude-16.344°
Altitude35,771.171 km
Speed3.077 km/s
True Right ascension11h 56m 53s
True Declination-2° 18' 28"
Sunlit
Object was in daylight at TLE epoch
TLE from 17 hours ago
0 IUS R/B(2)
1 22316U 93003D   24202.71277067 -.00000167  00000-0  00000-0 0  9991
2 22316  12.2807 348.5126 0070841 110.4600  79.6959  1.00138708120216
Epoch: 2024-07-20T17:06Z
No data available
Other satellites on launch #3 in the year 1993 (1993-01-13 UTC)

IUS R/B(2) Visibility forecast

Observer location: 39.9160978°, -105.1181434

IUS R/B(2) is not visible in the next 10 days
Span
Click to sort rows by Start time (UTC) header in descending order
Start Az.
Max El. time (UTC)
Max El. Az.
Max El.
End time (UTC)
End Az.